This documentation is for Dovecot v1.x, see wiki2 for v2.x documentation.

[Show "Revision History"] [Show "General Page Infos"] [Show "Page hits and edits"]

Revision History

Showing page edit history entries from 228 to 277 out of 397 entries total. (5 | 10 | 25 | 50 | 100 | 200 items per page)

# Date Size Editor Comment Action
277 2007-03-19 00:58:55 5253 to previous TimoSirainen   view
276 2007-03-19 00:13:44 5300 to previous TimoSirainen   view
275 2007-03-18 20:30:02 5300 to previous TimoSirainen   view
274 2007-03-18 19:35:38 5288 to previous TimoSirainen   view
273 2007-03-17 12:39:14 5222 to previous TimoSirainen   view
272 2007-03-16 14:35:33 5166 to previous TimoSirainen   view
271 2007-03-13 23:43:32 5257 to previous troyengel add thunderbird debug stublink view
270 2007-03-07 17:20:56 5192 to previous TimoSirainen   view
269 2007-03-06 15:41:05 5137 to previous TimoSirainen   view
268 2007-03-01 15:07:37 5119 to previous skdovecot   view
267 2007-03-01 12:11:26 5050 to previous TimoSirainen   view
266 2007-02-16 21:05:44 4920 to previous TimoSirainen   view
265 2007-01-18 14:32:48 4875 to previous TimoSirainen   view
264 2006-12-22 21:25:05 4820 to previous TimoSirainen   view
263 2006-12-22 21:23:43 4814 to previous TimoSirainen   view
262 2006-12-14 14:48:45 4773 to previous LeventeFarkas   view
261 2006-12-14 13:45:13 4759 to previous LeventeFarkas   view
260 2006-12-11 13:23:29 4633 to previous TimoSirainen   view
259 2006-12-11 05:22:48 4633 to previous James Turnbull   view
258 2006-11-05 19:13:11 4764 to previous TimoSirainen   view
257 2006-11-05 19:00:36 4655 to previous TimoSirainen I think this is good enough for a new front page now view
256 2006-11-05 16:20:00 3115 to previous TimoSirainen   view
255 2006-10-18 09:13:14 3099 to previous James Turnbull   view
254 2006-10-18 09:11:37 3094 to previous James Turnbull   view
253 2006-09-22 15:22:17 3048 to previous TimoSirainen   view
252 2006-07-13 09:38:12 2962 to previous JensNissen   view
251 2006-07-01 18:12:57 2936 to previous TimoSirainen   view
250 2006-06-17 14:52:17 2884 to previous TimoSirainen   view
249 2006-05-18 14:26:14 2855 to previous MatthiasAndree   view
248 2006-05-18 13:12:15 2797 to previous MatthiasAndree add a hr between TOC and Overview view
247 2006-05-18 13:06:12 2793 to previous MatthiasAndree Rearrange link and TOC view
246 2006-05-12 23:35:28 2736 to previous TimoSirainen   view
245 2006-05-12 22:32:37 2668 to previous TimoSirainen   view
244 2006-05-08 12:16:01 2646 to previous TimoSirainen   view
243 2006-05-02 08:59:24 2627 to previous TimoSirainen   view
242 2006-04-25 14:25:03 2607 to previous TimoSirainen   view
241 2006-04-13 10:31:46 2588 to previous danielwatts adding link for new section of example server setups - inspired by mail-list msg view
240 2006-04-08 18:21:37 2557 to previous RobMcGee   view
239 2006-02-28 07:59:58 2529 to previous TimoSirainen   view
238 2006-02-13 21:42:54 2479 to previous TimoSirainen   view
237 2005-12-27 22:26:35 2446 to previous TimoSirainen   view
236 2005-11-02 18:30:09 2428 to previous MarkPlaksin   view
235 2005-11-02 18:23:48 2453 to previous MarkPlaksin   view
234 2005-10-28 15:35:33 2428 to previous TimoSirainen   view
233 2005-09-18 16:12:32 2405 to previous TimoSirainen   view
232 2005-09-18 11:23:20 2362 to previous TimoSirainen   view
231 2005-09-18 11:17:13 2345 to previous TimoSirainen no such page view
230 2005-09-06 17:02:21 2405 to previous ip146 cleaning up more porn view
229 2005-09-06 12:31:20 10156 to previous 202   view
228 2005-08-29 16:21:54 2405 to previous MarcPerkel added odds and ends view